Year,Month,Day,Hour,Minute,Value (Times are PST for temperature in C)
2017,06,20,00,00,12.30
2017,06,20,00,01,12.30
2017,06,20,00,02,12.30
2017,06,20,00,03,12.30
2017,06,20,00,04,12.30
2017,06,20,00,05,12.30
2017,06,20,00,06,12.20
2017,06,20,00,07,12.20
2017,06,20,00,08,12.20
2017,06,20,00,09,12.20
2017,06,20,00,10,12.20
2017,06,20,00,11,12.20
2017,06,20,00,12,12.20
2017,06,20,00,13,12.20
2017,06,20,00,14,12.10
2017,06,20,00,15,12.10
2017,06,20,00,16,12.10
2017,06,20,00,17,12.10
2017,06,20,00,18,12.20
2017,06,20,00,19,12.20
2017,06,20,00,20,12.20
2017,06,20,00,21,12.30
2017,06,20,00,22,12.30
2017,06,20,00,23,12.30
2017,06,20,00,24,12.30
2017,06,20,00,25,12.30
2017,06,20,00,26,12.30
2017,06,20,00,27,12.30
2017,06,20,00,28,12.30
2017,06,20,00,29,12.30
2017,06,20,00,30,12.30
2017,06,20,00,31,12.20
2017,06,20,00,32,12.20
2017,06,20,00,33,12.20
2017,06,20,00,34,12.20
2017,06,20,00,35,12.10
2017,06,20,00,36,12.10
2017,06,20,00,37,12.10
2017,06,20,00,38,12.10
2017,06,20,00,39,12.10
2017,06,20,00,40,12.10
2017,06,20,00,41,12.10
2017,06,20,00,42,12.10
2017,06,20,00,43,12.10
2017,06,20,00,44,12.40
2017,06,20,00,45,12.80
2017,06,20,00,46,13.30
2017,06,20,00,47,13.60
2017,06,20,00,48,14.00
2017,06,20,00,49,14.10
2017,06,20,00,50,14.40
2017,06,20,00,51,14.70
2017,06,20,00,52,15.00
2017,06,20,00,53,15.20
2017,06,20,00,54,15.20
2017,06,20,00,55,15.00
2017,06,20,00,56,14.60
2017,06,20,00,57,14.40
2017,06,20,00,58,14.20
2017,06,20,00,59,13.70
2017,06,20,01,00,13.30
2017,06,20,01,01,13.10
2017,06,20,01,02,13.00
2017,06,20,01,03,13.10
2017,06,20,01,04,13.30
2017,06,20,01,05,13.30
2017,06,20,01,06,13.10
2017,06,20,01,07,13.10
2017,06,20,01,08,13.10
2017,06,20,01,09,13.10
2017,06,20,01,10,13.30
2017,06,20,01,11,13.40
2017,06,20,01,12,13.40
2017,06,20,01,13,13.50
2017,06,20,01,14,13.60
2017,06,20,01,15,13.70
2017,06,20,01,16,13.90
2017,06,20,01,17,14.20
2017,06,20,01,18,14.40
2017,06,20,01,19,14.70
2017,06,20,01,20,14.80
2017,06,20,01,21,14.80
2017,06,20,01,22,14.80
2017,06,20,01,23,14.90
2017,06,20,01,24,14.90
2017,06,20,01,25,14.90
2017,06,20,01,26,15.00
2017,06,20,01,27,15.10
2017,06,20,01,28,15.20
2017,06,20,01,29,15.30
2017,06,20,01,30,15.40
2017,06,20,01,31,15.40
2017,06,20,01,32,15.40
2017,06,20,01,33,15.30
2017,06,20,01,34,15.20
2017,06,20,01,35,15.00
2017,06,20,01,36,15.00
2017,06,20,01,37,15.10
2017,06,20,01,38,15.30
2017,06,20,01,39,15.30
2017,06,20,01,40,15.30
2017,06,20,01,41,15.30
2017,06,20,01,42,15.30
2017,06,20,01,43,15.30
2017,06,20,01,44,15.30
2017,06,20,01,45,15.30
2017,06,20,01,46,15.90
2017,06,20,01,47,16.00
2017,06,20,01,48,16.10
2017,06,20,01,49,16.10
2017,06,20,01,50,16.10
2017,06,20,01,51,16.10
2017,06,20,01,52,16.00
2017,06,20,01,53,16.00
2017,06,20,01,54,15.90
2017,06,20,01,55,15.80
2017,06,20,01,56,15.70
2017,06,20,01,57,15.70
2017,06,20,01,58,15.60
2017,06,20,01,59,15.50
2017,06,20,02,00,15.40
2017,06,20,02,01,15.20
2017,06,20,02,02,15.10
2017,06,20,02,03,14.90
2017,06,20,02,04,14.80
2017,06,20,02,05,14.70
2017,06,20,02,06,14.70
2017,06,20,02,07,14.70
2017,06,20,02,08,14.70
2017,06,20,02,09,14.70
2017,06,20,02,10,14.60
2017,06,20,02,11,14.50
2017,06,20,02,12,14.40
2017,06,20,02,13,14.30
2017,06,20,02,14,14.40
2017,06,20,02,15,14.60
2017,06,20,02,16,14.70
2017,06,20,02,17,14.90
2017,06,20,02,18,15.10
2017,06,20,02,19,15.20
2017,06,20,02,20,15.30
2017,06,20,02,21,15.40
2017,06,20,02,22,15.50
2017,06,20,02,23,15.70
2017,06,20,02,24,15.80
2017,06,20,02,25,15.80
2017,06,20,02,26,15.80
2017,06,20,02,27,15.80
2017,06,20,02,28,15.80
2017,06,20,02,29,15.80
2017,06,20,02,30,15.80
2017,06,20,02,31,15.80
2017,06,20,02,32,15.80
2017,06,20,02,33,15.70
2017,06,20,02,34,15.70
2017,06,20,02,35,15.60
2017,06,20,02,36,15.50
2017,06,20,02,37,15.40
2017,06,20,02,38,15.30
2017,06,20,02,39,15.20
2017,06,20,02,40,15.00
2017,06,20,02,41,14.90
2017,06,20,02,42,14.80
2017,06,20,02,43,14.90
2017,06,20,02,44,14.90
2017,06,20,02,45,14.80
2017,06,20,02,46,14.70
2017,06,20,02,47,14.70
2017,06,20,02,48,14.70
2017,06,20,02,49,14.70
2017,06,20,02,50,14.70
2017,06,20,02,51,14.70
2017,06,20,02,52,14.60
2017,06,20,02,53,14.50
2017,06,20,02,54,14.30
2017,06,20,02,55,14.30
2017,06,20,02,56,14.20
2017,06,20,02,57,14.20
2017,06,20,02,58,14.30
2017,06,20,02,59,14.50
2017,06,20,03,00,14.70
2017,06,20,03,01,15.00
2017,06,20,03,02,15.20
2017,06,20,03,03,15.40
2017,06,20,03,04,15.50
2017,06,20,03,05,15.70
2017,06,20,03,06,15.70
2017,06,20,03,07,15.60
2017,06,20,03,08,15.60
2017,06,20,03,09,15.60
2017,06,20,03,10,15.50
2017,06,20,03,11,15.40
2017,06,20,03,12,15.40
2017,06,20,03,13,15.30
2017,06,20,03,14,15.30
2017,06,20,03,15,15.20
2017,06,20,03,16,15.10
2017,06,20,03,17,15.10
2017,06,20,03,18,15.00
2017,06,20,03,19,15.00
2017,06,20,03,20,15.00
2017,06,20,03,21,15.10
2017,06,20,03,22,15.10
2017,06,20,03,23,15.20
2017,06,20,03,24,15.30
2017,06,20,03,25,15.50
2017,06,20,03,26,15.60
2017,06,20,03,27,15.80
2017,06,20,03,28,15.80
2017,06,20,03,29,15.80
2017,06,20,03,30,15.80
2017,06,20,03,31,15.80
2017,06,20,03,32,15.70
2017,06,20,03,33,15.50
2017,06,20,03,34,15.40
2017,06,20,03,35,15.30
2017,06,20,03,36,15.20
2017,06,20,03,37,15.20
2017,06,20,03,38,15.10
2017,06,20,03,39,15.10
2017,06,20,03,40,15.00
2017,06,20,03,41,15.00
2017,06,20,03,42,14.90
2017,06,20,03,43,15.00
2017,06,20,03,44,15.00
2017,06,20,03,45,14.80
2017,06,20,03,46,14.70
2017,06,20,03,47,14.40
2017,06,20,03,48,14.30
2017,06,20,03,49,14.20
2017,06,20,03,50,14.30
2017,06,20,03,51,14.30
2017,06,20,03,52,14.30
2017,06,20,03,53,14.20
2017,06,20,03,54,14.00
2017,06,20,03,55,13.80
2017,06,20,03,56,13.60
2017,06,20,03,57,13.50
2017,06,20,03,58,13.40
2017,06,20,03,59,13.30
2017,06,20,04,00,13.30
2017,06,20,04,01,13.10
2017,06,20,04,02,13.00
2017,06,20,04,03,12.90
2017,06,20,04,04,12.80
2017,06,20,04,05,12.90
2017,06,20,04,06,13.20
2017,06,20,04,07,13.30
2017,06,20,04,08,13.40
2017,06,20,04,09,13.60
2017,06,20,04,10,13.80
2017,06,20,04,11,14.10
2017,06,20,04,12,14.30
2017,06,20,04,13,14.50
2017,06,20,04,14,14.60
2017,06,20,04,15,14.60
2017,06,20,04,16,14.60
2017,06,20,04,17,14.70
2017,06,20,04,18,14.70
2017,06,20,04,19,14.70
2017,06,20,04,20,14.80
2017,06,20,04,21,14.90
2017,06,20,04,22,14.90
2017,06,20,04,23,14.90
2017,06,20,04,24,14.90
2017,06,20,04,25,15.00
2017,06,20,04,26,15.00
2017,06,20,04,27,15.20
2017,06,20,04,28,15.30
2017,06,20,04,29,15.30
2017,06,20,04,30,15.30
2017,06,20,04,31,15.30
2017,06,20,04,32,15.30
2017,06,20,04,33,15.20
2017,06,20,04,34,15.00
2017,06,20,04,35,14.80
2017,06,20,04,36,14.70
2017,06,20,04,37,14.60
2017,06,20,04,38,14.40
2017,06,20,04,39,14.30
2017,06,20,04,40,14.30
2017,06,20,04,41,14.40
2017,06,20,04,42,14.60
2017,06,20,04,43,14.70
2017,06,20,04,44,14.90
2017,06,20,04,45,15.00
2017,06,20,04,46,15.20
2017,06,20,04,47,15.40
2017,06,20,04,48,15.60
2017,06,20,04,49,15.70
2017,06,20,04,50,15.80
2017,06,20,04,51,15.80
2017,06,20,04,52,15.90
2017,06,20,04,53,15.90
2017,06,20,04,54,16.00
2017,06,20,04,55,16.10
2017,06,20,04,56,16.20
2017,06,20,04,57,16.30
2017,06,20,04,58,16.30
2017,06,20,04,59,16.30
2017,06,20,05,00,16.20
2017,06,20,05,01,16.10
2017,06,20,05,02,16.20
2017,06,20,05,03,16.20
2017,06,20,05,04,16.30
2017,06,20,05,05,16.30
2017,06,20,05,06,16.30
2017,06,20,05,07,16.20
2017,06,20,05,08,16.20
2017,06,20,05,09,16.20
2017,06,20,05,10,16.20
2017,06,20,05,11,16.20
2017,06,20,05,12,16.20
2017,06,20,05,13,16.10
2017,06,20,05,14,16.00
2017,06,20,05,15,15.80
2017,06,20,05,16,15.60
2017,06,20,05,17,15.40
2017,06,20,05,18,15.20
2017,06,20,05,19,15.00
2017,06,20,05,20,14.80
2017,06,20,05,21,14.70
2017,06,20,05,22,14.60
2017,06,20,05,23,14.50
2017,06,20,05,24,14.50
2017,06,20,05,25,14.30
2017,06,20,05,26,14.20
2017,06,20,05,27,14.00
2017,06,20,05,28,13.80
2017,06,20,05,29,13.90
2017,06,20,05,30,13.90
2017,06,20,05,31,13.90
2017,06,20,05,32,14.00
2017,06,20,05,33,14.00
2017,06,20,05,34,14.00
2017,06,20,05,35,14.00
2017,06,20,05,36,14.00
2017,06,20,05,37,14.10
2017,06,20,05,38,14.10
2017,06,20,05,39,14.10
2017,06,20,05,40,14.10
2017,06,20,05,41,14.10
2017,06,20,05,42,14.00
2017,06,20,05,43,14.00
2017,06,20,05,44,13.90
2017,06,20,05,45,13.90
2017,06,20,05,46,13.90
2017,06,20,05,47,13.80
2017,06,20,05,48,13.70
2017,06,20,05,49,13.60
2017,06,20,05,50,13.60
2017,06,20,05,51,13.70
2017,06,20,05,52,13.60
2017,06,20,05,53,13.60
2017,06,20,05,54,13.60
2017,06,20,05,55,13.70
2017,06,20,05,56,13.80
2017,06,20,05,57,13.80
2017,06,20,05,58,13.80
2017,06,20,05,59,13.60
2017,06,20,06,00,13.40
2017,06,20,06,01,13.20
2017,06,20,06,02,13.10
2017,06,20,06,03,12.90
2017,06,20,06,04,13.00
2017,06,20,06,05,13.20
2017,06,20,06,06,13.30
2017,06,20,06,07,13.30
2017,06,20,06,08,13.40
2017,06,20,06,09,13.50
2017,06,20,06,10,13.50
2017,06,20,06,11,13.40
2017,06,20,06,12,13.40
2017,06,20,06,13,13.50
2017,06,20,06,14,13.50
2017,06,20,06,15,13.50
2017,06,20,06,16,13.60
2017,06,20,06,17,13.80
2017,06,20,06,18,14.10
2017,06,20,06,19,14.30
2017,06,20,06,20,14.50
2017,06,20,06,21,14.60
2017,06,20,06,22,14.70
2017,06,20,06,23,14.80
2017,06,20,06,24,14.80
2017,06,20,06,25,14.90
2017,06,20,06,26,14.90
2017,06,20,06,27,14.80
2017,06,20,06,28,14.80
2017,06,20,06,29,14.70
2017,06,20,06,30,14.60
2017,06,20,06,31,14.60
2017,06,20,06,32,14.40
2017,06,20,06,33,13.80
2017,06,20,06,34,13.40
2017,06,20,06,35,13.40
2017,06,20,06,36,13.50
2017,06,20,06,37,13.70
2017,06,20,06,38,13.80
2017,06,20,06,39,14.00
2017,06,20,06,40,14.10
2017,06,20,06,41,14.20
2017,06,20,06,42,14.20
2017,06,20,06,43,14.00
2017,06,20,06,44,13.70
2017,06,20,06,45,13.80
2017,06,20,06,46,13.90
2017,06,20,06,47,14.00
2017,06,20,06,48,13.90
2017,06,20,06,49,13.80
2017,06,20,06,50,13.70
2017,06,20,06,51,13.90
2017,06,20,06,52,14.00
2017,06,20,06,53,14.20
2017,06,20,06,54,14.40
2017,06,20,06,55,14.60
2017,06,20,06,56,14.70
2017,06,20,06,57,14.80
2017,06,20,06,58,14.80
2017,06,20,06,59,14.90
2017,06,20,07,00,15.00
2017,06,20,07,01,15.00
2017,06,20,07,02,14.80
2017,06,20,07,03,14.60
2017,06,20,07,04,14.60
2017,06,20,07,05,14.70
2017,06,20,07,06,14.80
2017,06,20,07,07,14.90
2017,06,20,07,08,14.90
2017,06,20,07,09,14.90
2017,06,20,07,10,14.90
2017,06,20,07,11,14.80
2017,06,20,07,12,14.80
2017,06,20,07,13,14.70
2017,06,20,07,14,14.70
2017,06,20,07,15,14.70
2017,06,20,07,16,14.50
2017,06,20,07,17,14.30
2017,06,20,07,18,14.20
2017,06,20,07,19,14.30
2017,06,20,07,20,14.40
2017,06,20,07,21,14.50
2017,06,20,07,22,14.30
2017,06,20,07,23,14.10
2017,06,20,07,24,14.10
2017,06,20,07,25,14.20
2017,06,20,07,26,14.20
2017,06,20,07,27,14.10
2017,06,20,07,28,13.80
2017,06,20,07,29,13.90
2017,06,20,07,30,14.20
2017,06,20,07,31,14.40
2017,06,20,07,32,14.60
2017,06,20,07,33,14.70
2017,06,20,07,34,14.70
2017,06,20,07,35,14.80
2017,06,20,07,36,14.80
2017,06,20,07,37,14.80
2017,06,20,07,38,14.80
2017,06,20,07,39,14.80
2017,06,20,07,40,14.80
2017,06,20,07,41,14.80
2017,06,20,07,42,14.80
2017,06,20,07,43,14.80
2017,06,20,07,44,14.80
2017,06,20,07,45,14.80
2017,06,20,07,46,14.70
2017,06,20,07,47,14.70
2017,06,20,07,48,14.60
2017,06,20,07,49,14.60
2017,06,20,07,50,14.50
2017,06,20,07,51,14.50
2017,06,20,07,52,14.50
2017,06,20,07,53,14.40
2017,06,20,07,54,14.20
2017,06,20,07,55,14.00
2017,06,20,07,56,13.80
2017,06,20,07,57,13.60
2017,06,20,07,58,13.50
2017,06,20,07,59,13.40
2017,06,20,08,00,13.20
2017,06,20,08,01,13.10
2017,06,20,08,02,13.00
2017,06,20,08,03,12.90
2017,06,20,08,04,12.80
2017,06,20,08,05,12.80
2017,06,20,08,06,12.80
2017,06,20,08,07,12.80
2017,06,20,08,08,12.70
2017,06,20,08,09,12.70
2017,06,20,08,10,12.70
2017,06,20,08,11,12.70
2017,06,20,08,12,12.70
2017,06,20,08,13,12.70
2017,06,20,08,14,12.70
2017,06,20,08,15,12.80
2017,06,20,08,16,12.80
2017,06,20,08,17,12.80
2017,06,20,08,18,12.80
2017,06,20,08,19,12.70
2017,06,20,08,20,12.70
2017,06,20,08,21,12.70
2017,06,20,08,22,12.70
2017,06,20,08,23,12.70
2017,06,20,08,24,12.70
2017,06,20,08,25,12.70
2017,06,20,08,26,12.60
2017,06,20,08,27,12.60
2017,06,20,08,28,12.60
2017,06,20,08,29,12.70
2017,06,20,08,30,12.80
2017,06,20,08,31,12.90
2017,06,20,08,32,13.10
2017,06,20,08,33,13.40
2017,06,20,08,34,13.70
2017,06,20,08,35,14.00
2017,06,20,08,36,14.20
2017,06,20,08,37,14.40
2017,06,20,08,38,14.60
2017,06,20,08,39,14.70
2017,06,20,08,40,14.90
2017,06,20,08,41,14.90
2017,06,20,08,42,14.90
2017,06,20,08,43,14.90
2017,06,20,08,44,15.00
2017,06,20,08,45,15.30
2017,06,20,08,46,15.50
2017,06,20,08,47,15.70
2017,06,20,08,48,15.80
2017,06,20,08,49,15.80
2017,06,20,08,50,15.90
2017,06,20,08,51,15.90
2017,06,20,08,52,15.80
2017,06,20,08,53,15.80
2017,06,20,08,54,15.70
2017,06,20,08,55,15.70
2017,06,20,08,56,15.70
2017,06,20,08,57,15.70
2017,06,20,08,58,15.70
2017,06,20,08,59,15.70
2017,06,20,09,00,15.80
2017,06,20,09,01,15.80
2017,06,20,09,02,15.80
2017,06,20,09,03,15.90
2017,06,20,09,04,16.00
2017,06,20,09,05,16.00
2017,06,20,09,06,16.10
2017,06,20,09,07,16.20
2017,06,20,09,08,16.20
2017,06,20,09,09,16.20
2017,06,20,09,10,16.10
2017,06,20,09,11,16.10
2017,06,20,09,12,16.10
2017,06,20,09,13,16.00
2017,06,20,09,14,16.00
2017,06,20,09,15,16.00
2017,06,20,09,16,15.90
2017,06,20,09,17,16.00
2017,06,20,09,18,16.00
2017,06,20,09,19,16.10
2017,06,20,09,20,16.00
2017,06,20,09,21,15.90
2017,06,20,09,22,15.80
2017,06,20,09,23,15.80
2017,06,20,09,24,15.80
2017,06,20,09,25,15.70
2017,06,20,09,26,15.60
2017,06,20,09,27,15.70
2017,06,20,09,28,15.80
2017,06,20,09,29,15.70
2017,06,20,09,30,15.70
2017,06,20,09,31,15.70
2017,06,20,09,32,15.80
2017,06,20,09,33,15.70
2017,06,20,09,34,15.40
2017,06,20,09,35,15.10
2017,06,20,09,36,14.90
2017,06,20,09,37,14.80
2017,06,20,09,38,15.00
2017,06,20,09,39,15.20
2017,06,20,09,40,15.40
2017,06,20,09,41,15.40
2017,06,20,09,42,15.40
2017,06,20,09,43,15.20
2017,06,20,09,44,14.80
2017,06,20,09,45,14.30
2017,06,20,09,46,14.00
2017,06,20,09,47,13.80
2017,06,20,09,48,13.80
2017,06,20,09,49,13.90
2017,06,20,09,50,14.20
2017,06,20,09,51,14.70
2017,06,20,09,52,15.20
2017,06,20,09,53,15.50
2017,06,20,09,54,15.70
2017,06,20,09,55,15.60
2017,06,20,09,56,15.60
2017,06,20,09,57,15.70
2017,06,20,09,58,15.90
2017,06,20,09,59,16.10
2017,06,20,10,00,16.20
2017,06,20,10,01,16.30
2017,06,20,10,02,16.40
2017,06,20,10,03,16.40
2017,06,20,10,04,16.40
2017,06,20,10,05,16.40
2017,06,20,10,06,16.30
2017,06,20,10,07,16.20
2017,06,20,10,08,16.10
2017,06,20,10,09,15.70
2017,06,20,10,10,15.50
2017,06,20,10,11,15.30
2017,06,20,10,12,15.10
2017,06,20,10,13,15.20
2017,06,20,10,14,15.60
2017,06,20,10,15,15.90
2017,06,20,10,16,16.00
2017,06,20,10,17,16.20
2017,06,20,10,18,16.30
2017,06,20,10,19,16.20
2017,06,20,10,20,16.20
2017,06,20,10,21,16.20
2017,06,20,10,22,16.20
2017,06,20,10,23,16.10
2017,06,20,10,24,16.10
2017,06,20,10,25,16.20
2017,06,20,10,26,16.20
2017,06,20,10,27,16.20
2017,06,20,10,28,16.20
2017,06,20,10,29,16.20
2017,06,20,10,30,16.20
2017,06,20,10,31,16.10
2017,06,20,10,32,15.90
2017,06,20,10,33,15.80
2017,06,20,10,34,15.70
2017,06,20,10,35,15.60
2017,06,20,10,36,15.40
2017,06,20,10,37,15.30
2017,06,20,10,38,15.20
2017,06,20,10,39,15.40
2017,06,20,10,40,15.50
2017,06,20,10,41,15.70
2017,06,20,10,42,15.90
2017,06,20,10,43,16.00
2017,06,20,10,44,15.90
2017,06,20,10,45,15.80
2017,06,20,10,46,15.70
2017,06,20,10,47,15.60
2017,06,20,10,48,15.40
2017,06,20,10,49,15.10
2017,06,20,10,50,14.70
2017,06,20,10,51,14.40
2017,06,20,10,52,14.20
2017,06,20,10,53,14.20
2017,06,20,10,54,14.30
2017,06,20,10,55,14.50
2017,06,20,10,56,14.70
2017,06,20,10,57,14.80
2017,06,20,10,58,14.80
2017,06,20,10,59,14.70
2017,06,20,11,00,14.60
2017,06,20,11,01,14.40
2017,06,20,11,02,14.20
2017,06,20,11,03,13.90
2017,06,20,11,04,13.60
2017,06,20,11,05,13.60
2017,06,20,11,06,13.60
2017,06,20,11,07,13.60
2017,06,20,11,08,13.50
2017,06,20,11,09,13.40
2017,06,20,11,10,13.40
2017,06,20,11,11,13.40
2017,06,20,11,12,13.30
2017,06,20,11,13,13.30
2017,06,20,11,14,13.20
2017,06,20,11,15,13.10
2017,06,20,11,16,13.10
2017,06,20,11,17,13.20
2017,06,20,11,18,13.30
2017,06,20,11,19,13.40
2017,06,20,11,20,13.50
2017,06,20,11,21,13.60
2017,06,20,11,22,13.70
2017,06,20,11,23,13.70
2017,06,20,11,24,13.70
2017,06,20,11,25,13.70
2017,06,20,11,26,13.90
2017,06,20,11,27,14.00
2017,06,20,11,28,14.10
2017,06,20,11,29,14.30
2017,06,20,11,30,14.40
2017,06,20,11,31,14.60
2017,06,20,11,32,14.60
2017,06,20,11,33,14.60
2017,06,20,11,34,14.70
2017,06,20,11,35,14.70
2017,06,20,11,36,14.80
2017,06,20,11,37,14.70
2017,06,20,11,38,14.70
2017,06,20,11,39,14.70
2017,06,20,11,40,14.50
2017,06,20,11,41,14.30
2017,06,20,11,42,14.20
2017,06,20,11,43,14.00
2017,06,20,11,44,13.90
2017,06,20,11,45,13.80
2017,06,20,11,46,13.70
2017,06,20,11,47,13.80
2017,06,20,11,48,14.10
2017,06,20,11,49,14.40
2017,06,20,11,50,14.50
2017,06,20,11,51,14.60
2017,06,20,11,52,14.70
2017,06,20,11,53,14.80
2017,06,20,11,54,14.90
2017,06,20,11,55,14.90
2017,06,20,11,56,14.90
2017,06,20,11,57,14.90
2017,06,20,11,58,14.80
2017,06,20,11,59,14.70
2017,06,20,12,00,14.70
2017,06,20,12,01,14.60
2017,06,20,12,02,14.40
2017,06,20,12,03,14.40
2017,06,20,12,04,14.30
2017,06,20,12,05,14.40
2017,06,20,12,06,14.40
2017,06,20,12,07,14.30
2017,06,20,12,08,14.30
2017,06,20,12,09,14.30
2017,06,20,12,10,14.30
2017,06,20,12,11,14.30
2017,06,20,12,12,14.30
2017,06,20,12,13,14.30
2017,06,20,12,14,14.30
2017,06,20,12,15,14.30
2017,06,20,12,16,14.40
2017,06,20,12,17,14.40
2017,06,20,12,18,14.50
2017,06,20,12,19,14.50
2017,06,20,12,20,14.50
2017,06,20,12,21,14.50
2017,06,20,12,22,14.50
2017,06,20,12,23,14.50
2017,06,20,12,24,14.60
2017,06,20,12,25,14.50
2017,06,20,12,26,14.40
2017,06,20,12,27,14.40
2017,06,20,12,28,14.40
2017,06,20,12,29,14.40
2017,06,20,12,30,14.40
2017,06,20,12,31,14.30
2017,06,20,12,32,14.30
2017,06,20,12,33,14.20
2017,06,20,12,34,14.20
2017,06,20,12,35,14.20
2017,06,20,12,36,14.20
2017,06,20,12,37,14.20
2017,06,20,12,38,14.20
2017,06,20,12,39,14.20
2017,06,20,12,40,14.20
2017,06,20,12,41,14.20
2017,06,20,12,42,14.20
2017,06,20,12,43,14.20
2017,06,20,12,44,14.20
2017,06,20,12,45,14.30
2017,06,20,12,46,14.30
2017,06,20,12,47,14.20
2017,06,20,12,48,14.20
2017,06,20,12,49,14.20
2017,06,20,12,50,14.20
2017,06,20,12,51,14.20
2017,06,20,12,52,14.30
2017,06,20,12,53,14.30
2017,06,20,12,54,14.20
2017,06,20,12,55,14.20
2017,06,20,12,56,14.20
2017,06,20,12,57,14.20
2017,06,20,12,58,14.20
2017,06,20,12,59,14.20
2017,06,20,13,00,14.20
2017,06,20,13,01,14.20
2017,06,20,13,02,14.20
2017,06,20,13,03,14.10
2017,06,20,13,04,14.10
2017,06,20,13,05,14.00
2017,06,20,13,06,14.10
2017,06,20,13,07,14.00
2017,06,20,13,08,14.00
2017,06,20,13,09,14.10
2017,06,20,13,10,14.20
2017,06,20,13,11,14.20
2017,06,20,13,12,14.10
2017,06,20,13,13,14.10
2017,06,20,13,14,14.10
2017,06,20,13,15,14.10
2017,06,20,13,16,14.10
2017,06,20,13,17,14.00
2017,06,20,13,18,14.00
2017,06,20,13,19,13.90
2017,06,20,13,20,13.90
2017,06,20,13,21,13.90
2017,06,20,13,22,13.90
2017,06,20,13,23,13.90
2017,06,20,13,24,13.90
2017,06,20,13,25,13.90
2017,06,20,13,26,13.90
2017,06,20,13,27,13.90
2017,06,20,13,28,13.90
2017,06,20,13,29,13.90
2017,06,20,13,30,13.70
2017,06,20,13,31,13.70
2017,06,20,13,32,13.70
2017,06,20,13,33,13.70
2017,06,20,13,34,13.70
2017,06,20,13,35,13.70
2017,06,20,13,36,13.70
2017,06,20,13,37,13.80
2017,06,20,13,38,13.80
2017,06,20,13,39,13.70
2017,06,20,13,40,13.80
2017,06,20,13,41,13.80
2017,06,20,13,42,13.90
2017,06,20,13,43,13.90
2017,06,20,13,44,13.90
2017,06,20,13,45,13.90
2017,06,20,13,46,13.80
2017,06,20,13,47,13.80
2017,06,20,13,48,13.80
2017,06,20,13,49,13.80
2017,06,20,13,50,13.80
2017,06,20,13,51,13.80
2017,06,20,13,52,13.80
2017,06,20,13,53,13.80
2017,06,20,13,54,13.80
2017,06,20,13,55,13.80
2017,06,20,13,56,13.70
2017,06,20,13,57,13.70
2017,06,20,13,58,13.60
2017,06,20,13,59,13.60
2017,06,20,14,00,13.60
2017,06,20,14,01,13.50
2017,06,20,14,02,13.50
2017,06,20,14,03,13.50
2017,06,20,14,04,13.50
2017,06,20,14,05,13.60
2017,06,20,14,06,13.60
2017,06,20,14,07,13.60
2017,06,20,14,08,13.60
2017,06,20,14,09,13.60
2017,06,20,14,10,13.60
2017,06,20,14,11,13.60
2017,06,20,14,12,13.70
2017,06,20,14,13,13.70
2017,06,20,14,14,13.70
2017,06,20,14,15,13.70
2017,06,20,14,16,13.70
2017,06,20,14,17,13.70
2017,06,20,14,18,13.60
2017,06,20,14,19,13.60
2017,06,20,14,20,13.60
2017,06,20,14,21,13.50
2017,06,20,14,22,13.50
2017,06,20,14,23,13.50
2017,06,20,14,24,13.50
2017,06,20,14,25,13.50
2017,06,20,14,26,13.60
2017,06,20,14,27,13.60
2017,06,20,14,28,13.60
2017,06,20,14,29,13.60
2017,06,20,14,30,13.70
2017,06,20,14,31,13.70
2017,06,20,14,32,13.70
2017,06,20,14,33,13.70
2017,06,20,14,34,13.70
2017,06,20,14,35,13.70
2017,06,20,14,36,13.70
2017,06,20,14,37,13.70
2017,06,20,14,38,13.60
2017,06,20,14,39,13.70
2017,06,20,14,40,13.70
2017,06,20,14,41,13.70
2017,06,20,14,42,13.70
2017,06,20,14,43,13.60
2017,06,20,14,44,13.60
2017,06,20,14,45,13.60
2017,06,20,14,46,13.60
2017,06,20,14,47,13.60
2017,06,20,14,48,13.60
2017,06,20,14,49,13.60
2017,06,20,14,50,13.60
2017,06,20,14,51,13.60
2017,06,20,14,52,13.60
2017,06,20,14,53,13.60
2017,06,20,14,54,13.60
2017,06,20,14,55,13.70
2017,06,20,14,56,13.70
2017,06,20,14,57,13.70
2017,06,20,14,58,13.70
2017,06,20,14,59,13.60
2017,06,20,15,00,13.70
2017,06,20,15,01,13.60
2017,06,20,15,02,13.60
2017,06,20,15,03,13.50
2017,06,20,15,04,13.50
2017,06,20,15,05,13.50
2017,06,20,15,06,13.40
2017,06,20,15,07,13.40
2017,06,20,15,08,13.40
2017,06,20,15,09,13.40
2017,06,20,15,10,13.40
2017,06,20,15,11,13.30
2017,06,20,15,12,13.30
2017,06,20,15,13,13.30
2017,06,20,15,14,13.30
2017,06,20,15,15,13.30
2017,06,20,15,16,13.30
2017,06,20,15,17,13.30
2017,06,20,15,18,13.40
2017,06,20,15,19,13.40
2017,06,20,15,20,13.50
2017,06,20,15,21,13.60
2017,06,20,15,22,13.60
2017,06,20,15,23,13.60
2017,06,20,15,24,13.60
2017,06,20,15,25,13.60
2017,06,20,15,26,13.60
2017,06,20,15,27,13.50
2017,06,20,15,28,13.50
2017,06,20,15,29,13.50
2017,06,20,15,30,13.50
2017,06,20,15,31,13.50
2017,06,20,15,32,13.40
2017,06,20,15,33,13.40
2017,06,20,15,34,13.40
2017,06,20,15,35,13.40
2017,06,20,15,36,13.50
2017,06,20,15,37,13.50
2017,06,20,15,38,13.50
2017,06,20,15,39,13.50
2017,06,20,15,40,13.50
2017,06,20,15,41,13.50
2017,06,20,15,42,13.40
2017,06,20,15,43,13.40
2017,06,20,15,44,13.40
2017,06,20,15,45,13.40
2017,06,20,15,46,13.40
2017,06,20,15,47,13.40
2017,06,20,15,48,13.50
2017,06,20,15,49,13.60
2017,06,20,15,50,13.50
2017,06,20,15,51,13.50
2017,06,20,15,52,13.50
2017,06,20,15,53,13.60
2017,06,20,15,54,13.60
2017,06,20,15,55,13.60
2017,06,20,15,56,13.60
2017,06,20,15,57,13.50
2017,06,20,15,58,13.50
2017,06,20,15,59,13.50
2017,06,20,16,00,13.50
2017,06,20,16,01,13.50
2017,06,20,16,02,13.50
2017,06,20,16,03,13.50
2017,06,20,16,04,13.50
2017,06,20,16,05,13.50
2017,06,20,16,06,13.50
2017,06,20,16,07,13.50
2017,06,20,16,08,13.50
2017,06,20,16,09,13.50
2017,06,20,16,10,13.50
2017,06,20,16,11,13.60
2017,06,20,16,12,13.60
2017,06,20,16,13,13.50
2017,06,20,16,14,13.50
2017,06,20,16,15,13.50
2017,06,20,16,16,13.50
2017,06,20,16,17,13.50
2017,06,20,16,18,13.50
2017,06,20,16,19,13.50
2017,06,20,16,20,13.50
2017,06,20,16,21,13.50
2017,06,20,16,22,13.50
2017,06,20,16,23,13.40
2017,06,20,16,24,13.50
2017,06,20,16,25,13.50
2017,06,20,16,26,13.50
2017,06,20,16,27,13.50
2017,06,20,16,28,13.50
2017,06,20,16,29,13.40
2017,06,20,16,30,13.40
2017,06,20,16,31,13.50
2017,06,20,16,32,13.50
2017,06,20,16,33,13.50
2017,06,20,16,34,13.60
2017,06,20,16,35,13.60
2017,06,20,16,36,13.60
2017,06,20,16,37,13.60
2017,06,20,16,38,13.60
2017,06,20,16,39,13.60
2017,06,20,16,40,13.50
2017,06,20,16,41,13.50
2017,06,20,16,42,13.50
2017,06,20,16,43,13.50
2017,06,20,16,44,13.50
2017,06,20,16,45,13.40
2017,06,20,16,46,13.40
2017,06,20,16,47,13.40
2017,06,20,16,48,13.40
2017,06,20,16,49,13.40
2017,06,20,16,50,13.50
2017,06,20,16,51,13.50
2017,06,20,16,52,13.50
2017,06,20,16,53,13.60
2017,06,20,16,54,13.60
2017,06,20,16,55,13.60
2017,06,20,16,56,13.50
2017,06,20,16,57,13.40
2017,06,20,16,58,13.50
2017,06,20,16,59,13.50
2017,06,20,17,00,13.40
2017,06,20,17,01,13.40
2017,06,20,17,02,13.40
2017,06,20,17,03,13.40
2017,06,20,17,04,13.40
2017,06,20,17,05,13.30
2017,06,20,17,06,13.30
2017,06,20,17,07,13.40
2017,06,20,17,08,13.40
2017,06,20,17,09,13.40
2017,06,20,17,10,13.50
2017,06,20,17,11,13.50
2017,06,20,17,12,13.50
2017,06,20,17,13,13.50
2017,06,20,17,14,13.50
2017,06,20,17,15,13.60
2017,06,20,17,16,13.60
2017,06,20,17,17,13.60
2017,06,20,17,18,13.60
2017,06,20,17,19,13.60